Time,TemperatureF,DewpointF,PressureIn,WindDirection,WindDirectionDegrees,WindSpeedMPH,WindSpeedGustMPH,Humidity,HourlyPrecipIn,Conditions,Clouds,dailyrainin,SoftwareType,DateUTC
2013-06-16 00:19:00,57.7,55.4,30.00,West,279,0.0,0.0,92,0.00,,,0.00,Wunderground v.1.15,2013-06-16 04:19:00,
2013-06-16 00:25:00,57.8,55.5,30.00,West,279,0.0,0.0,92,0.00,,,0.00,Wunderground v.1.15,2013-06-16 04:25:00,
2013-06-16 00:32:00,58.0,55.7,30.00,West,279,0.0,0.0,92,0.00,,,0.00,Wunderground v.1.15,2013-06-16 04:32:00,
2013-06-16 00:38:00,58.1,55.8,30.00,West,279,0.0,0.0,92,0.00,,,0.00,Wunderground v.1.15,2013-06-16 04:38:00,
2013-06-16 00:45:00,58.4,56.4,30.00,West,279,0.0,0.0,93,0.00,,,0.00,Wunderground v.1.15,2013-06-16 04:45:00,
2013-06-16 00:51:00,58.5,56.5,30.00,West,279,0.0,1.0,93,0.00,,,0.00,Wunderground v.1.15,2013-06-16 04:51:00,
2013-06-16 01:10:00,59.2,57.2,30.00,West,279,0.0,1.0,93,0.00,,,0.00,Wunderground v.1.15,2013-06-16 05:10:00,
2013-06-16 01:31:00,59.8,57.5,29.99,West,279,0.0,1.0,92,0.00,,,0.00,Wunderground v.1.15,2013-06-16 05:31:00,
2013-06-16 01:38:00,59.7,57.4,29.99,West,279,0.0,1.0,92,0.00,,,0.00,Wunderground v.1.15,2013-06-16 05:38:00,
2013-06-16 01:44:00,59.6,57.3,29.99,West,279,0.0,1.0,92,0.00,,,0.00,Wunderground v.1.15,2013-06-16 05:44:00,
2013-06-16 01:51:00,59.3,56.7,29.99,West,279,0.0,1.0,91,0.00,,,0.00,Wunderground v.1.15,2013-06-16 05:51:00,
2013-06-16 02:51:00,57.8,55.8,29.99,West,279,0.0,1.0,93,0.00,,,0.00,Wunderground v.1.15,2013-06-16 06:51:00,
2013-06-16 03:37:00,58.6,56.3,29.97,West,279,0.0,1.0,92,0.00,,,0.00,Wunderground v.1.15,2013-06-16 07:37:00,
2013-06-16 03:43:00,58.7,56.4,29.97,West,279,0.0,1.0,92,0.00,,,0.00,Wunderground v.1.15,2013-06-16 07:43:00,
2013-06-16 04:19:00,59.4,57.4,29.97,West,279,0.0,0.0,93,0.00,,,0.00,Wunderground v.1.15,2013-06-16 08:19:00,
2013-06-16 04:46:00,59.5,57.2,29.97,West,279,0.0,0.0,92,0.00,,,0.00,Wunderground v.1.15,2013-06-16 08:46:00,
2013-06-16 04:53:00,59.5,57.2,29.97,West,279,0.0,0.0,92,0.00,,,0.00,Wunderground v.1.15,2013-06-16 08:53:00,
2013-06-16 04:59:00,59.6,57.6,29.97,West,279,0.0,0.0,93,0.00,,,0.00,Wunderground v.1.15,2013-06-16 08:59:00,
2013-06-16 05:06:00,59.7,57.7,29.97,West,279,0.0,0.0,93,0.00,,,0.00,Wunderground v.1.15,2013-06-16 09:06:00,
2013-06-16 06:02:00,59.9,57.9,29.98,WNW,297,0.0,0.0,93,0.00,,,0.00,Wunderground v.1.15,2013-06-16 10:02:00,
2013-06-16 06:08:00,60.0,58.0,29.98,WNW,297,0.0,0.0,93,0.00,,,0.00,Wunderground v.1.15,2013-06-16 10:08:00,
2013-06-16 06:15:00,60.0,58.0,29.97,WNW,297,0.0,0.0,93,0.00,,,0.00,Wunderground v.1.15,2013-06-16 10:15:00,
2013-06-16 06:21:00,60.3,58.3,29.98,WNW,297,0.0,0.0,93,0.00,,,0.00,Wunderground v.1.15,2013-06-16 10:21:00,
2013-06-16 07:07:00,61.7,59.7,29.98,SSW,197,0.0,0.0,93,0.00,,,0.00,Wunderground v.1.15,2013-06-16 11:07:00,
2013-06-16 07:13:00,62.1,60.1,29.97,SSW,197,0.0,0.0,93,0.00,,,0.00,Wunderground v.1.15,2013-06-16 11:13:00,
2013-06-16 07:54:00,64.8,60.2,29.96,SSW,197,0.0,0.0,85,0.00,,,0.00,Wunderground v.1.15,2013-06-16 11:54:00,
2013-06-16 08:01:00,65.5,60.5,29.96,SSW,197,0.0,0.0,84,0.00,,,0.00,Wunderground v.1.15,2013-06-16 12:01:00,
2013-06-16 08:39:00,69.9,62.0,29.95,SSW,197,0.0,2.0,76,0.00,,,0.00,Wunderground v.1.15,2013-06-16 12:39:00,
2013-06-16 08:59:00,71.3,61.8,29.95,SE,124,1.0,1.0,72,0.00,,,0.00,Wunderground v.1.15,2013-06-16 12:59:00,
2013-06-16 09:05:00,71.2,61.7,29.95,SE,139,1.0,1.0,72,0.00,,,0.00,Wunderground v.1.15,2013-06-16 13:05:00,
2013-06-16 09:11:00,71.0,61.5,29.95,SE,139,0.0,0.0,72,0.00,,,0.00,Wunderground v.1.15,2013-06-16 13:11:00,
2013-06-16 09:17:00,70.8,62.1,29.95,SE,139,0.0,0.0,74,0.00,,,0.00,Wunderground v.1.15,2013-06-16 13:17:00,
2013-06-16 09:22:00,70.5,61.4,29.95,SE,139,0.0,0.0,73,0.00,,,0.00,Wunderground v.1.15,2013-06-16 13:22:00,
2013-06-16 09:28:00,70.6,61.5,29.94,SE,139,0.0,0.0,73,0.00,,,0.00,Wunderground v.1.15,2013-06-16 13:28:00,
2013-06-16 09:33:00,70.7,61.2,29.94,SE,140,0.0,0.0,72,0.00,,,0.00,Wunderground v.1.15,2013-06-16 13:33:00,
2013-06-16 09:39:00,71.1,60.8,29.94,SE,140,0.0,2.0,70,0.00,,,0.00,Wunderground v.1.15,2013-06-16 13:39:00,
2013-06-16 09:44:00,71.5,61.6,29.94,SE,140,0.0,0.0,71,0.00,,,0.00,Wunderground v.1.15,2013-06-16 13:44:00,
2013-06-16 09:50:00,72.1,61.8,29.94,SE,140,0.0,4.0,70,0.00,,,0.00,Wunderground v.1.15,2013-06-16 13:50:00,
2013-06-16 09:55:00,72.8,62.0,29.94,SE,140,1.0,2.0,69,0.00,,,0.00,Wunderground v.1.15,2013-06-16 13:55:00,
2013-06-16 10:00:00,73.5,62.7,29.93,SE,140,1.0,1.0,69,0.00,,,0.00,Wunderground v.1.15,2013-06-16 14:00:00,
2013-06-16 10:06:00,73.6,62.0,29.93,SE,140,1.0,1.0,67,0.00,,,0.00,Wunderground v.1.15,2013-06-16 14:06:00,
2013-06-16 10:12:00,74.0,62.8,29.93,SE,140,1.0,1.0,68,0.00,,,0.00,Wunderground v.1.15,2013-06-16 14:12:00,
2013-06-16 10:17:00,74.7,63.4,29.92,SE,140,1.0,1.0,68,0.00,,,0.00,Wunderground v.1.15,2013-06-16 14:17:00,
2013-06-16 10:23:00,75.2,63.5,29.92,SE,130,1.0,1.0,67,0.00,,,0.00,Wunderground v.1.15,2013-06-16 14:23:00,
2013-06-16 10:29:00,75.8,63.6,29.92,SE,127,1.0,4.0,66,0.00,,,0.00,Wunderground v.1.15,2013-06-16 14:29:00,
2013-06-16 10:35:00,76.6,63.5,29.92,SE,128,2.0,5.0,64,0.00,,,0.00,Wunderground v.1.15,2013-06-16 14:35:00,
2013-06-16 10:41:00,76.4,62.9,29.92,WSW,252,2.0,2.0,63,0.00,,,0.00,Wunderground v.1.15,2013-06-16 14:41:00,
2013-06-16 10:46:00,76.3,63.7,29.92,SE,143,2.0,4.0,65,0.00,,,0.00,Wunderground v.1.15,2013-06-16 14:46:00,
2013-06-16 10:51:00,76.3,64.1,29.92,SE,143,1.0,2.0,66,0.00,,,0.00,Wunderground v.1.15,2013-06-16 14:51:00,
2013-06-16 10:57:00,76.4,63.8,29.92,SSE,154,1.0,2.0,65,0.00,,,0.00,Wunderground v.1.15,2013-06-16 14:57:00,
2013-06-16 11:07:00,76.6,64.4,29.91,SE,133,1.0,3.0,66,0.00,,,0.00,Wunderground v.1.15,2013-06-16 15:07:00,
2013-06-16 11:12:00,77.1,64.4,29.91,South,176,1.0,7.0,65,0.00,,,0.00,Wunderground v.1.15,2013-06-16 15:12:00,
2013-06-16 11:18:00,77.8,64.6,29.91,West,279,2.0,7.0,64,0.00,,,0.00,Wunderground v.1.15,2013-06-16 15:18:00,
2013-06-16 11:24:00,78.2,65.5,29.91,South,181,2.0,2.0,65,0.00,,,0.00,Wunderground v.1.15,2013-06-16 15:24:00,
2013-06-16 11:29:00,78.2,65.0,29.90,SE,140,1.0,3.0,64,0.00,,,0.00,Wunderground v.1.15,2013-06-16 15:29:00,
2013-06-16 11:37:00,78.7,65.9,29.90,West,271,2.0,4.0,65,0.00,,,0.00,Wunderground v.1.15,2013-06-16 15:37:00,
2013-06-16 11:42:00,79.0,65.8,29.90,WSW,238,1.0,4.0,64,0.00,,,0.00,Wunderground v.1.15,2013-06-16 15:42:00,
2013-06-16 11:49:00,78.9,66.1,29.90,SSE,164,1.0,5.0,65,0.00,,,0.00,Wunderground v.1.15,2013-06-16 15:49:00,
2013-06-16 11:55:00,78.5,65.3,29.90,ENE,76,2.0,5.0,64,0.00,,,0.00,Wunderground v.1.15,2013-06-16 15:55:00,
2013-06-16 12:00:00,79.0,66.7,29.90,WNW,286,2.0,2.0,66,0.00,,,0.00,Wunderground v.1.15,2013-06-16 16:00:00,
2013-06-16 12:07:00,79.4,66.2,29.90,West,268,2.0,3.0,64,0.00,,,0.00,Wunderground v.1.15,2013-06-16 16:07:00,
2013-06-16 12:12:00,79.5,66.7,29.90,WNW,282,2.0,4.0,65,0.00,,,0.00,Wunderground v.1.15,2013-06-16 16:12:00,
2013-06-16 12:17:00,79.5,66.3,29.90,WNW,289,1.0,5.0,64,0.00,,,0.00,Wunderground v.1.15,2013-06-16 16:17:00,
2013-06-16 12:23:00,79.6,65.9,29.89,WNW,294,2.0,5.0,63,0.00,,,0.00,Wunderground v.1.15,2013-06-16 16:23:00,
2013-06-16 12:29:00,79.6,67.2,29.89,SSE,167,2.0,6.0,66,0.00,,,0.00,Wunderground v.1.15,2013-06-16 16:29:00,
2013-06-16 12:34:00,79.6,66.8,29.89,West,261,2.0,5.0,65,0.00,,,0.00,Wunderground v.1.15,2013-06-16 16:34:00,
2013-06-16 12:41:00,79.3,65.1,29.88,West,267,3.0,5.0,62,0.00,,,0.00,Wunderground v.1.15,2013-06-16 16:41:00,
2013-06-16 12:46:00,79.6,66.3,29.89,West,273,4.0,5.0,64,0.00,,,0.00,Wunderground v.1.15,2013-06-16 16:46:00,
2013-06-16 12:51:00,79.8,66.5,29.89,West,275,3.0,4.0,64,0.00,,,0.00,Wunderground v.1.15,2013-06-16 16:51:00,
2013-06-16 12:56:00,80.1,65.9,29.89,West,280,3.0,6.0,62,0.00,,,0.00,Wunderground v.1.15,2013-06-16 16:56:00,
2013-06-16 13:07:00,79.3,65.1,29.88,WSW,256,5.0,5.0,62,0.00,,,0.00,Wunderground v.1.15,2013-06-16 17:07:00,
2013-06-16 13:12:00,79.3,66.5,29.88,West,277,4.0,5.0,65,0.00,,,0.00,Wunderground v.1.15,2013-06-16 17:12:00,
2013-06-16 13:18:00,79.5,65.3,29.88,WSW,254,3.0,5.0,62,0.00,,,0.00,Wunderground v.1.15,2013-06-16 17:18:00,
2013-06-16 13:25:00,79.5,65.3,29.88,West,271,2.0,2.0,62,0.00,,,0.00,Wunderground v.1.15,2013-06-16 17:25:00,
2013-06-16 13:36:00,79.3,65.1,29.88,WNW,286,3.0,3.0,62,0.00,,,0.00,Wunderground v.1.15,2013-06-16 17:36:00,
2013-06-16 13:41:00,79.2,66.0,29.89,West,279,3.0,3.0,64,0.00,,,0.00,Wunderground v.1.15,2013-06-16 17:41:00,
2013-06-16 13:47:00,79.2,66.0,29.89,WNW,290,4.0,4.0,64,0.00,,,0.00,Wunderground v.1.15,2013-06-16 17:47:00,
2013-06-16 13:52:00,79.1,66.3,29.88,West,277,4.0,4.0,65,0.00,,,0.00,Wunderground v.1.15,2013-06-16 17:52:00,
2013-06-16 13:58:00,79.1,65.0,29.88,WNW,292,4.0,9.0,62,0.00,,,0.00,Wunderground v.1.15,2013-06-16 17:58:00,
2013-06-16 14:09:00,79.1,65.4,29.88,WNW,286,4.0,4.0,63,0.00,,,0.00,Wunderground v.1.15,2013-06-16 18:09:00,
2013-06-16 14:14:00,78.9,65.7,29.88,WNW,303,4.0,7.0,64,0.00,,,0.00,Wunderground v.1.15,2013-06-16 18:14:00,
2013-06-16 14:19:00,78.6,64.9,29.88,WNW,282,4.0,7.0,63,0.00,,,0.00,Wunderground v.1.15,2013-06-16 18:19:00,
2013-06-16 14:26:00,78.0,65.3,29.88,West,278,3.0,7.0,65,0.00,,,0.00,Wunderground v.1.15,2013-06-16 18:26:00,
2013-06-16 14:32:00,77.7,65.0,29.87,West,259,3.0,7.0,65,0.00,,,0.00,Wunderground v.1.15,2013-06-16 18:32:00,
2013-06-16 14:38:00,77.7,65.0,29.88,WNW,288,3.0,7.0,65,0.00,,,0.00,Wunderground v.1.15,2013-06-16 18:38:00,
2013-06-16 14:43:00,77.7,64.5,29.88,WNW,292,3.0,5.0,64,0.00,,,0.00,Wunderground v.1.15,2013-06-16 18:43:00,
2013-06-16 14:50:00,77.9,65.2,29.88,West,265,2.0,5.0,65,0.00,,,0.00,Wunderground v.1.15,2013-06-16 18:50:00,
2013-06-16 14:56:00,78.1,66.2,29.87,West,265,2.0,2.0,67,0.00,,,0.00,Wunderground v.1.15,2013-06-16 18:56:00,
2013-06-16 15:02:00,78.2,65.5,29.87,SSW,205,1.0,2.0,65,0.00,,,0.00,Wunderground v.1.15,2013-06-16 19:02:00,
2013-06-16 15:07:00,78.2,65.0,29.87,NNW,336,1.0,3.0,64,0.00,,,0.00,Wunderground v.1.15,2013-06-16 19:07:00,
2013-06-16 15:13:00,78.3,66.0,29.87,West,266,1.0,1.0,66,0.00,,,0.00,Wunderground v.1.15,2013-06-16 19:13:00,
2013-06-16 15:20:00,78.4,66.1,29.86,SE,140,0.0,1.0,66,0.00,,,0.00,Wunderground v.1.15,2013-06-16 19:20:00,
2013-06-16 15:26:00,78.7,66.8,29.87,SSW,205,0.0,2.0,67,0.00,,,0.00,Wunderground v.1.15,2013-06-16 19:26:00,
2013-06-16 15:31:00,78.9,65.7,29.86,WNW,290,1.0,3.0,64,0.00,,,0.00,Wunderground v.1.15,2013-06-16 19:31:00,
2013-06-16 15:36:00,79.0,67.1,29.86,WNW,290,1.0,3.0,67,0.00,,,0.00,Wunderground v.1.15,2013-06-16 19:36:00,
2013-06-16 15:41:00,79.1,66.8,29.86,WNW,295,0.0,0.0,66,0.00,,,0.00,Wunderground v.1.15,2013-06-16 19:41:00,
2013-06-16 15:51:00,79.1,66.8,29.87,West,259,0.0,0.0,66,0.00,,,0.00,Wunderground v.1.15,2013-06-16 19:51:00,
2013-06-16 15:57:00,79.6,67.2,29.86,West,259,0.0,0.0,66,0.00,,,0.00,Wunderground v.1.15,2013-06-16 19:57:00,
2013-06-16 16:02:00,80.1,66.8,29.86,WNW,299,0.0,3.0,64,0.00,,,0.00,Wunderground v.1.15,2013-06-16 20:02:00,
2013-06-16 16:07:00,79.4,66.2,29.86,West,279,2.0,5.0,64,0.00,,,0.00,Wunderground v.1.15,2013-06-16 20:07:00,
2013-06-16 16:12:00,78.6,65.8,29.86,West,273,2.0,2.0,65,0.00,,,0.00,Wunderground v.1.15,2013-06-16 20:12:00,
2013-06-16 16:18:00,77.9,65.2,29.87,West,279,2.0,6.0,65,0.00,,,0.00,Wunderground v.1.15,2013-06-16 20:18:00,
2013-06-16 16:23:00,77.5,65.2,29.87,WNW,286,2.0,4.0,66,0.00,,,0.00,Wunderground v.1.15,2013-06-16 20:23:00,
2013-06-16 16:28:00,77.4,65.6,29.87,WNW,284,1.0,4.0,67,0.00,,,0.00,Wunderground v.1.15,2013-06-16 20:28:00,
2013-06-16 16:35:00,78.1,66.2,29.87,West,262,2.0,4.0,67,0.00,,,0.00,Wunderground v.1.15,2013-06-16 20:35:00,
2013-06-16 16:41:00,79.4,66.6,29.87,West,261,3.0,3.0,65,0.00,,,0.00,Wunderground v.1.15,2013-06-16 20:41:00,
2013-06-16 16:48:00,79.3,65.6,29.86,WSW,254,3.0,3.0,63,0.00,,,0.00,Wunderground v.1.15,2013-06-16 20:48:00,
2013-06-16 16:53:00,79.3,66.5,29.86,WNW,290,3.0,3.0,65,0.00,,,0.00,Wunderground v.1.15,2013-06-16 20:53:00,
2013-06-16 16:59:00,79.4,66.6,29.86,WNW,291,2.0,3.0,65,0.00,,,0.00,Wunderground v.1.15,2013-06-16 20:59:00,
2013-06-16 17:04:00,79.7,67.3,29.87,WNW,300,2.0,3.0,66,0.00,,,0.00,Wunderground v.1.15,2013-06-16 21:04:00,
2013-06-16 17:10:00,79.9,67.5,29.87,West,279,2.0,4.0,66,0.00,,,0.00,Wunderground v.1.15,2013-06-16 21:10:00,
2013-06-16 17:15:00,80.0,68.1,29.87,West,279,3.0,4.0,67,0.00,,,0.00,Wunderground v.1.15,2013-06-16 21:15:00,
2013-06-16 17:21:00,80.1,68.6,29.87,WSW,252,3.0,4.0,68,0.00,,,0.00,Wunderground v.1.15,2013-06-16 21:21:00,
2013-06-16 17:27:00,80.0,66.3,29.87,West,281,3.0,6.0,63,0.00,,,0.00,Wunderground v.1.15,2013-06-16 21:27:00,
2013-06-16 17:32:00,79.7,66.0,29.88,West,273,4.0,5.0,63,0.00,,,0.00,Wunderground v.1.15,2013-06-16 21:32:00,
2013-06-16 17:38:00,79.1,65.4,29.88,WNW,290,5.0,8.0,63,0.00,,,0.00,Wunderground v.1.15,2013-06-16 21:38:00,
2013-06-16 17:43:00,78.9,65.2,29.88,WNW,292,5.0,5.0,63,0.00,,,0.00,Wunderground v.1.15,2013-06-16 21:43:00,
2013-06-16 17:49:00,78.7,65.0,29.88,West,266,5.0,8.0,63,0.00,,,0.00,Wunderground v.1.15,2013-06-16 21:49:00,
2013-06-16 17:58:00,78.8,65.6,29.88,WNW,286,5.0,5.0,64,0.00,,,0.00,Wunderground v.1.15,2013-06-16 21:58:00,
2013-06-16 18:07:00,78.3,65.6,29.88,WNW,284,6.0,8.0,65,0.00,,,0.00,Wunderground v.1.15,2013-06-16 22:07:00,
2013-06-16 18:12:00,78.5,64.4,29.87,WSW,246,6.0,8.0,62,0.00,,,0.00,Wunderground v.1.15,2013-06-16 22:12:00,
2013-06-16 18:18:00,78.3,64.7,29.87,WNW,288,6.0,11.0,63,0.00,,,0.00,Wunderground v.1.15,2013-06-16 22:18:00,
2013-06-16 18:23:00,78.3,64.2,29.87,WNW,290,6.0,8.0,62,0.00,,,0.00,Wunderground v.1.15,2013-06-16 22:23:00,
2013-06-16 18:31:00,78.4,64.8,29.88,WNW,285,6.0,6.0,63,0.00,,,0.00,Wunderground v.1.15,2013-06-16 22:31:00,
2013-06-16 18:37:00,78.5,64.4,29.88,WSW,254,5.0,12.0,62,0.00,,,0.00,Wunderground v.1.15,2013-06-16 22:37:00,
2013-06-16 18:50:00,77.9,63.8,29.88,WNW,291,6.0,10.0,62,0.00,,,0.00,Wunderground v.1.15,2013-06-16 22:50:00,
2013-06-16 18:56:00,77.7,63.6,29.88,WNW,289,6.0,7.0,62,0.00,,,0.00,Wunderground v.1.15,2013-06-16 22:56:00,
2013-06-16 19:02:00,77.4,63.8,29.88,West,280,6.0,6.0,63,0.00,,,0.00,Wunderground v.1.15,2013-06-16 23:02:00,
2013-06-16 19:07:00,77.2,63.6,29.88,West,266,4.0,5.0,63,0.00,,,0.00,Wunderground v.1.15,2013-06-16 23:07:00,
2013-06-16 19:13:00,77.1,63.5,29.88,West,271,4.0,4.0,63,0.00,,,0.00,Wunderground v.1.15,2013-06-16 23:13:00,
2013-06-16 19:19:00,77.0,63.9,29.88,West,274,4.0,5.0,64,0.00,,,0.00,Wunderground v.1.15,2013-06-16 23:19:00,
2013-06-16 19:25:00,76.7,64.0,29.88,West,274,2.0,4.0,65,0.00,,,0.00,Wunderground v.1.15,2013-06-16 23:25:00,
2013-06-16 19:31:00,76.6,64.4,29.88,West,274,1.0,1.0,66,0.00,,,0.00,Wunderground v.1.15,2013-06-16 23:31:00,
2013-06-16 19:37:00,76.4,64.6,29.88,West,274,1.0,1.0,67,0.00,,,0.00,Wunderground v.1.15,2013-06-16 23:37:00,
2013-06-16 19:42:00,76.2,64.9,29.88,West,274,0.0,0.0,68,0.00,,,0.00,Wunderground v.1.15,2013-06-16 23:42:00,
2013-06-16 19:47:00,76.0,63.8,29.88,West,275,1.0,1.0,66,0.00,,,0.00,Wunderground v.1.15,2013-06-16 23:47:00,
2013-06-16 19:52:00,76.4,64.2,29.89,West,275,1.0,1.0,66,0.00,,,0.00,Wunderground v.1.15,2013-06-16 23:52:00,
2013-06-16 19:58:00,76.0,64.2,29.88,West,275,1.0,2.0,67,0.00,,,0.00,Wunderground v.1.15,2013-06-16 23:58:00,
2013-06-16 20:05:00,75.7,64.0,29.89,West,277,2.0,3.0,67,0.00,,,0.00,Wunderground v.1.15,2013-06-17 00:05:00,
2013-06-16 20:11:00,75.9,63.7,29.89,West,277,3.0,3.0,66,0.00,,,0.00,Wunderground v.1.15,2013-06-17 00:11:00,
2013-06-16 20:17:00,75.9,63.7,29.89,West,280,3.0,4.0,66,0.00,,,0.00,Wunderground v.1.15,2013-06-17 00:17:00,
2013-06-16 20:22:00,75.6,63.4,29.89,West,280,2.0,3.0,66,0.00,,,0.00,Wunderground v.1.15,2013-06-17 00:22:00,
2013-06-16 20:28:00,75.5,63.3,29.89,West,280,2.0,4.0,66,0.00,,,0.00,Wunderground v.1.15,2013-06-17 00:28:00,
2013-06-16 20:37:00,75.1,63.4,29.89,West,280,2.0,2.0,67,0.00,,,0.00,Wunderground v.1.15,2013-06-17 00:37:00,
2013-06-16 20:43:00,75.0,63.3,29.89,West,280,1.0,1.0,67,0.00,,,0.00,Wunderground v.1.15,2013-06-17 00:43:00,
2013-06-16 20:49:00,74.8,63.5,29.89,West,280,0.0,1.0,68,0.00,,,0.00,Wunderground v.1.15,2013-06-17 00:49:00,
2013-06-16 20:55:00,74.4,64.0,29.90,West,280,0.0,0.0,70,0.00,,,0.00,Wunderground v.1.15,2013-06-17 00:55:00,
2013-06-16 21:01:00,73.8,63.8,29.90,West,280,0.0,0.0,71,0.00,,,0.00,Wunderground v.1.15,2013-06-17 01:01:00,
2013-06-16 21:07:00,73.5,64.7,29.90,West,280,0.0,0.0,74,0.00,,,0.00,Wunderground v.1.15,2013-06-17 01:07:00,
2013-06-16 21:12:00,73.2,64.4,29.90,West,280,0.0,0.0,74,0.00,,,0.00,Wunderground v.1.15,2013-06-17 01:12:00,
2013-06-16 21:24:00,72.7,63.9,29.90,West,280,0.0,0.0,74,0.00,,,0.00,Wunderground v.1.15,2013-06-17 01:24:00,
2013-06-16 21:29:00,72.4,64.0,29.90,West,280,0.0,0.0,75,0.00,,,0.00,Wunderground v.1.15,2013-06-17 01:29:00,
2013-06-16 21:36:00,71.9,64.3,29.91,West,280,0.0,0.0,77,0.00,,,0.00,Wunderground v.1.15,2013-06-17 01:36:00,
2013-06-16 21:42:00,71.2,64.0,29.91,West,280,0.0,0.0,78,0.00,,,0.00,Wunderground v.1.15,2013-06-17 01:42:00,
2013-06-16 21:49:00,70.6,63.8,29.91,West,280,0.0,0.0,79,0.00,,,0.00,Wunderground v.1.15,2013-06-17 01:49:00,
2013-06-16 21:55:00,70.3,63.8,29.91,West,280,0.0,0.0,80,0.00,,,0.00,Wunderground v.1.15,2013-06-17 01:55:00,
2013-06-16 22:02:00,69.4,63.7,29.92,West,280,0.0,0.0,82,0.00,,,0.00,Wunderground v.1.15,2013-06-17 02:02:00,
2013-06-16 22:07:00,68.8,63.1,29.92,West,280,0.0,0.0,82,0.00,,,0.00,Wunderground v.1.15,2013-06-17 02:07:00,
2013-06-16 22:14:00,68.1,63.1,29.92,West,280,0.0,0.0,84,0.00,,,0.00,Wunderground v.1.15,2013-06-17 02:14:00,
2013-06-16 22:19:00,68.6,62.9,29.92,West,280,0.0,0.0,82,0.00,,,0.00,Wunderground v.1.15,2013-06-17 02:19:00,
2013-06-16 22:25:00,69.5,63.1,29.92,West,280,0.0,1.0,80,0.00,,,0.00,Wunderground v.1.15,2013-06-17 02:25:00,
2013-06-16 22:31:00,70.1,62.9,29.92,West,280,1.0,1.0,78,0.00,,,0.00,Wunderground v.1.15,2013-06-17 02:31:00,
2013-06-16 22:36:00,70.0,62.5,29.92,West,280,0.0,1.0,77,0.00,,,0.00,Wunderground v.1.15,2013-06-17 02:36:00,
2013-06-16 22:42:00,70.2,62.6,29.92,West,280,0.0,0.0,77,0.00,,,0.00,Wunderground v.1.15,2013-06-17 02:42:00,
2013-06-16 22:48:00,70.3,62.7,29.92,West,280,0.0,0.0,77,0.00,,,0.00,Wunderground v.1.15,2013-06-17 02:48:00,
2013-06-16 22:54:00,70.2,63.0,29.92,West,280,0.0,0.0,78,0.00,,,0.00,Wunderground v.1.15,2013-06-17 02:54:00,
2013-06-16 23:00:00,69.8,63.0,29.92,West,280,0.0,0.0,79,0.00,,,0.00,Wunderground v.1.15,2013-06-17 03:00:00,
2013-06-16 23:07:00,69.4,62.6,29.91,West,280,0.0,0.0,79,0.00,,,0.00,Wunderground v.1.15,2013-06-17 03:07:00,
2013-06-16 23:13:00,69.0,62.6,29.91,West,280,0.0,0.0,80,0.00,,,0.00,Wunderground v.1.15,2013-06-17 03:13:00,
2013-06-16 23:19:00,68.6,62.2,29.91,West,280,0.0,0.0,80,0.00,,,0.00,Wunderground v.1.15,2013-06-17 03:19:00,
2013-06-16 23:27:00,68.5,62.1,29.91,West,280,0.0,0.0,80,0.00,,,0.00,Wunderground v.1.15,2013-06-17 03:27:00,
2013-06-16 23:33:00,68.4,62.3,29.90,West,280,0.0,0.0,81,0.00,,,0.00,Wunderground v.1.15,2013-06-17 03:33:00,
2013-06-16 23:39:00,67.9,62.5,29.90,West,280,0.0,0.0,83,0.00,,,0.00,Wunderground v.1.15,2013-06-17 03:39:00,
2013-06-16 23:47:00,66.6,61.9,29.91,West,280,0.0,0.0,85,0.00,,,0.00,Wunderground v.1.15,2013-06-17 03:47:00,
2013-06-16 23:52:00,66.3,62.0,29.91,West,280,0.0,0.0,86,0.00,,,0.00,Wunderground v.1.15,2013-06-17 03:52:00,
2013-06-16 23:58:00,66.2,61.9,29.90,West,280,0.0,0.0,86,0.00,,,0.00,Wunderground v.1.15,2013-06-17 03:58:00,